Погода в Ониче

Нигерия     6°07′28″N   6°48′14″E
темп.,
°C
ветер,
м/с
пор.,
м/с
влажн.,
%
обл.,
%
осадки,
мм/ч
давл.,
гПа
погр.,
м
3 августа, вт
вт301:00+23ююз1495100 1.9 1015189
04:00+23юз1297100 0.0 101460
07:00+23с0097100 2.5 101448
10:00+26юз1183100 2.0 1015281
13:00+29зюз2267100 3.8 10131118
16:00+27юз2382100 4.1 1011398
19:00+24ююз2691100 8.9 1013146
22:00+24ююз2694100 0.8 1014206
4 августа, ср
ср401:00+23ююз1395100 0.8 1014135
04:00+23ююз1497100 0.0 1013128
07:00+23ююв1297100 0.0 1015106
10:00+27ююз247658 0.1 1016867
13:00+29юз446945 1.4 10141186
16:00+28юз457565 2.4 1012896
19:00+24юз3892100 6.6 1014259
22:00+23ююз2795100 1.3 1017281
5 августа, чт
чт501:00+23юз1696100 1.3 1015308
04:00+23юз149689 0.3 1015162
07:00+23юз139595 1.5 1016101
10:00+25зюз2586100 1.7 1018384
13:00+27з347774 3.2 1017809
16:00+25зюз2590100 2.9 1015255
19:00+23з2893100 4.9 1016329
22:00+23з1396100 0.2 1018119
6 августа, пт
пт601:00+22з1196100 0.2 101729
04:00+22з1496100 0.0 1016155
07:00+22зсз0196100 0.0 101730
10:00+23ссз129198 0.0 1019230
13:00+25сз138585 0.3 1017356
16:00+25ссз2384100 0.4 1015282
19:00+24ссв0088100 0.4 101512
22:00+23ссз119199 0.0 101712
7 августа, сб
сб701:00+22зюз119673 0.0 101529
04:00+22зюз1196100 0.0 101519
07:00+22зюз119582 0.0 101643
10:00+27з247174 0.0 10181008
13:00+30зюз355535 0.1 10151633
16:00+27зюз477135 0.6 1012452
19:00+24зюз268866 4.0 1014136
22:00+23юз2892100 0.2 1016337